OCN9ZF EDDF-LGIR

Flight info

Callsign OCN9ZF
Flight time N/A
Altitude 37000
Route CINDY8S CINDY Z74 LAMPU DCT NOMBO Y161 MAH DCT VAVOR DCT RADIZ DCT PINDO DCT KEA UL607 GIVIS T514 XAVIS
Aircraft A320/M-SDE2E3FGIJ1LORWXYZ/HB1

Departure

Time 2026-05-05 06:31
Airport Frankfurt Main Airport (EDDF)

Arrival

Time N/A
Airport Heraklion International Nikos Kazantzakis Airport (LGIR)
Time Latitude Longitude Altitude Speed Heading
2026-05-05 05:22 50.04895 8.56994 361 ft 0 kts 295°
2026-05-05 06:19 50.04891 8.57007 364 ft 4 kts 293°
2026-05-05 06:20 50.04881 8.57042 358 ft 1 kts 296°
2026-05-05 06:20 50.04872 8.57074 362 ft 4 kts 275°
2026-05-05 06:20 50.04872 8.57089 364 ft 3 kts 249°
2026-05-05 06:20 50.04853 8.57069 358 ft 4 kts 200°
2026-05-05 06:21 50.04827 8.57057 358 ft 4 kts 199°
2026-05-05 06:21 50.04806 8.57043 358 ft 4 kts 205°
2026-05-05 06:21 50.04782 8.57025 356 ft 4 kts 205°
2026-05-05 06:21 50.04757 8.57008 359 ft 4 kts 205°
2026-05-05 06:22 50.04733 8.56990 362 ft 4 kts 205°
2026-05-05 06:22 50.04708 8.56973 358 ft 4 kts 205°
2026-05-05 06:22 50.04684 8.56955 362 ft 4 kts 205°
2026-05-05 06:22 50.04659 8.56938 360 ft 3 kts 205°
2026-05-05 06:23 50.04656 8.56936 358 ft 0 kts 205°
2026-05-05 06:24 50.04652 8.56933 362 ft 3 kts 205°
2026-05-05 06:25 50.04615 8.56915 357 ft 8 kts 194°
2026-05-05 06:25 50.04562 8.56895 361 ft 5 kts 193°
2026-05-05 06:25 50.04511 8.56877 359 ft 12 kts 193°
2026-05-05 06:25 50.04434 8.56761 362 ft 20 kts 249°
2026-05-05 06:26 50.04384 8.56548 363 ft 22 kts 250°
2026-05-05 06:26 50.04326 8.56302 362 ft 26 kts 250°
2026-05-05 06:26 50.04262 8.56037 357 ft 27 kts 249°
2026-05-05 06:26 50.04193 8.55749 358 ft 29 kts 250°
2026-05-05 06:27 50.04130 8.55485 353 ft 23 kts 250°
2026-05-05 06:27 50.04020 8.55026 359 ft 24 kts 250°
2026-05-05 06:27 50.03960 8.54769 356 ft 26 kts 249°
2026-05-05 06:28 50.03896 8.54503 353 ft 22 kts 250°
2026-05-05 06:28 50.03831 8.54310 351 ft 21 kts 234°
2026-05-05 06:28 50.03771 8.54103 350 ft 22 kts 249°
2026-05-05 06:28 50.03714 8.53866 351 ft 24 kts 249°
2026-05-05 06:29 50.03652 8.53610 343 ft 26 kts 248°
2026-05-05 06:29 50.03584 8.53335 335 ft 28 kts 249°
2026-05-05 06:29 50.03517 8.53057 335 ft 23 kts 249°
2026-05-05 06:29 50.03465 8.52848 337 ft 21 kts 248°
2026-05-05 06:30 50.03422 8.52723 335 ft 10 kts 241°
2026-05-05 06:30 50.03389 8.52632 331 ft 9 kts 241°
2026-05-05 06:30 50.03343 8.52594 335 ft 7 kts 181°
2026-05-05 06:30 50.03287 8.52594 334 ft 15 kts 180°
2026-05-05 06:31 50.02910 8.52597 331 ft 90 kts 179°
2026-05-05 06:31 50.02080 8.52609 330 ft 146 kts 179°
2026-05-05 06:31 50.00923 8.52638 496 ft 177 kts 178°
2026-05-05 06:31 49.99678 8.52665 1157 ft 181 kts 179°
2026-05-05 06:32 49.98416 8.52677 1758 ft 190 kts 179°
2026-05-05 06:32 49.97008 8.52810 2097 ft 210 kts 163°
2026-05-05 06:32 49.95768 8.54109 2576 ft 226 kts 125°
2026-05-05 06:32 49.95103 8.56326 3321 ft 233 kts 112°
2026-05-05 06:33 49.94434 8.58627 4181 ft 235 kts 117°
2026-05-05 06:33 49.93949 8.61066 4933 ft 245 kts 97°
2026-05-05 06:33 49.93888 8.63821 5412 ft 266 kts 93°
2026-05-05 06:33 49.93777 8.66746 6056 ft 277 kts 104°
2026-05-05 06:34 49.93072 8.69515 6826 ft 277 kts 125°
2026-05-05 06:34 49.91800 8.71727 7697 ft 274 kts 144°
2026-05-05 06:34 49.90217 8.73422 8513 ft 278 kts 148°
2026-05-05 06:34 49.88703 8.75323 9347 ft 284 kts 135°
2026-05-05 06:35 49.87543 8.77844 10110 ft 292 kts 121°
2026-05-05 06:35 49.86529 8.80713 10413 ft 315 kts 121°
2026-05-05 06:35 49.85438 8.83771 10814 ft 331 kts 121°
2026-05-05 06:35 49.84304 8.86913 11481 ft 337 kts 121°
2026-05-05 06:36 49.83149 8.90101 12216 ft 341 kts 121°
2026-05-05 06:36 49.81978 8.93327 12931 ft 346 kts 121°
2026-05-05 06:36 49.80789 8.96587 13649 ft 350 kts 122°
2026-05-05 06:36 49.79586 8.99883 14269 ft 353 kts 122°
2026-05-05 06:37 49.78373 9.03209 14917 ft 356 kts 122°
2026-05-05 06:37 49.77152 9.06552 15567 ft 359 kts 122°
2026-05-05 06:37 49.76099 9.10087 16195 ft 366 kts 111°
2026-05-05 06:37 49.75436 9.13915 16817 ft 370 kts 107°
2026-05-05 06:38 49.74610 9.17623 17409 ft 370 kts 118°
2026-05-05 06:38 49.73303 9.21099 18039 ft 369 kts 129°
2026-05-05 06:38 49.71656 9.24138 18598 ft 370 kts 135°
2026-05-05 06:38 49.69952 9.27131 19115 ft 373 kts 134°
2026-05-05 06:39 49.68231 9.30158 19642 ft 377 kts 134°
2026-05-05 06:39 49.66495 9.33211 20150 ft 380 kts 134°
2026-05-05 06:39 49.64744 9.36289 20663 ft 383 kts 134°
2026-05-05 06:39 49.62994 9.39340 21144 ft 386 kts 137°
2026-05-05 06:40 49.60993 9.42082 21622 ft 385 kts 147°
2026-05-05 06:40 49.58732 9.44298 22098 ft 386 kts 152°
2026-05-05 06:40 49.56415 9.46416 22562 ft 388 kts 152°
2026-05-05 06:40 49.54089 9.48543 23084 ft 391 kts 152°
2026-05-05 06:41 49.51743 9.50688 23544 ft 394 kts 152°
2026-05-05 06:41 49.49380 9.52844 23943 ft 396 kts 152°
2026-05-05 06:41 49.47002 9.55007 24356 ft 398 kts 153°
2026-05-05 06:41 49.44614 9.57176 24767 ft 400 kts 153°
2026-05-05 06:42 49.42213 9.59358 25167 ft 402 kts 153°
2026-05-05 06:42 49.39800 9.61549 25564 ft 404 kts 153°
2026-05-05 06:42 49.37374 9.63749 25963 ft 406 kts 153°
2026-05-05 06:42 49.34953 9.66000 26338 ft 409 kts 149°
2026-05-05 06:43 49.32726 9.68759 26697 ft 416 kts 139°
2026-05-05 06:43 49.30670 9.71909 27060 ft 419 kts 139°
2026-05-05 06:43 49.28610 9.75067 27428 ft 421 kts 139°
2026-05-05 06:43 49.26534 9.78238 27802 ft 423 kts 139°
2026-05-05 06:44 49.24443 9.81418 28145 ft 425 kts 139°
2026-05-05 06:44 49.22337 9.84613 28472 ft 428 kts 139°
2026-05-05 06:44 49.20247 9.87783 28817 ft 430 kts 139°
2026-05-05 06:44 49.18119 9.91013 29155 ft 432 kts 139°
2026-05-05 06:45 49.15979 9.94262 29492 ft 434 kts 139°
2026-05-05 06:45 49.13829 9.97523 29820 ft 437 kts 139°
2026-05-05 06:45 49.11671 10.00788 30103 ft 439 kts 139°
2026-05-05 06:45 49.09498 10.04070 30371 ft 440 kts 139°
2026-05-05 06:46 49.07316 10.07361 30635 ft 442 kts 139°
2026-05-05 06:46 49.05119 10.10650 30908 ft 443 kts 140°
2026-05-05 06:46 49.02882 10.13888 31178 ft 444 kts 141°
2026-05-05 06:46 49.00621 10.17075 31513 ft 443 kts 141°
2026-05-05 06:47 48.98352 10.20226 31919 ft 440 kts 142°
2026-05-05 06:47 48.96092 10.23354 32319 ft 438 kts 142°
2026-05-05 06:47 48.93846 10.26482 32709 ft 437 kts 142°
2026-05-05 06:47 48.91615 10.29618 33076 ft 436 kts 142°
2026-05-05 06:48 48.89394 10.32752 33454 ft 435 kts 142°
2026-05-05 06:48 48.87181 10.35878 33823 ft 434 kts 142°
2026-05-05 06:48 48.84973 10.38988 34161 ft 432 kts 142°
2026-05-05 06:48 48.82771 10.42096 34454 ft 432 kts 141°
2026-05-05 06:49 48.80624 10.45298 34716 ft 433 kts 139°
2026-05-05 06:49 48.78537 10.48604 34951 ft 434 kts 138°
2026-05-05 06:49 48.76490 10.51961 35165 ft 435 kts 137°
2026-05-05 06:49 48.74446 10.55347 35371 ft 436 kts 137°
2026-05-05 06:50 48.72391 10.58729 35575 ft 436 kts 137°
2026-05-05 06:50 48.70321 10.62093 35803 ft 436 kts 137°
2026-05-05 06:50 48.68239 10.65430 36027 ft 436 kts 138°
2026-05-05 06:50 48.66146 10.68749 36245 ft 436 kts 138°
2026-05-05 06:51 48.64049 10.72057 36474 ft 436 kts 138°
2026-05-05 06:51 48.61953 10.75357 36680 ft 436 kts 138°
2026-05-05 06:51 48.59855 10.78664 36849 ft 436 kts 138°
2026-05-05 06:52 48.55692 10.85279 36877 ft 433 kts 138°
2026-05-05 06:52 48.51592 10.91854 36883 ft 434 kts 137°
2026-05-05 06:53 48.47448 10.98461 36893 ft 434 kts 138°
2026-05-05 06:53 48.43258 11.05002 36892 ft 434 kts 139°
2026-05-05 06:54 48.39052 11.11512 36891 ft 434 kts 139°
2026-05-05 06:54 48.34847 11.18022 36889 ft 434 kts 139°
2026-05-05 06:55 48.30650 11.24523 36865 ft 434 kts 138°
2026-05-05 06:55 48.26533 11.31152 36874 ft 437 kts 131°
2026-05-05 06:56 48.23330 11.38979 36877 ft 441 kts 124°
2026-05-05 06:56 48.20264 11.46943 36880 ft 442 kts 124°
2026-05-05 06:57 48.17180 11.54908 36882 ft 442 kts 124°
2026-05-05 06:57 48.14087 11.62856 36870 ft 441 kts 124°
2026-05-05 06:58 48.10990 11.70792 36877 ft 441 kts 124°
2026-05-05 06:58 48.07917 11.78671 36881 ft 441 kts 124°
2026-05-05 06:59 48.04819 11.86578 36881 ft 441 kts 124°
2026-05-05 06:59 48.01711 11.94479 36868 ft 441 kts 124°
2026-05-05 07:00 47.98598 12.02367 36853 ft 441 kts 124°
2026-05-05 07:00 47.95480 12.10247 36859 ft 441 kts 124°
2026-05-05 07:01 47.91792 12.17421 36862 ft 433 kts 141°
2026-05-05 07:01 47.87219 12.23202 36866 ft 431 kts 143°
2026-05-05 07:02 47.82637 12.28949 36865 ft 431 kts 143°
2026-05-05 07:02 47.78080 12.34657 36863 ft 431 kts 143°
2026-05-05 07:03 47.73485 12.40377 36856 ft 431 kts 144°
2026-05-05 07:03 47.68882 12.46095 36857 ft 431 kts 143°
2026-05-05 07:04 47.64278 12.51820 36860 ft 432 kts 144°
2026-05-05 07:04 47.59729 12.57645 36864 ft 433 kts 141°
2026-05-05 07:05 47.55360 12.63796 36856 ft 434 kts 139°
2026-05-05 07:05 47.51013 12.69999 36857 ft 434 kts 140°
2026-05-05 07:06 47.46625 12.76138 36872 ft 434 kts 140°
2026-05-05 07:06 47.42204 12.82233 36879 ft 435 kts 141°
2026-05-05 07:07 47.37779 12.88309 36913 ft 435 kts 141°
2026-05-05 07:07 47.33354 12.94397 36913 ft 435 kts 140°
2026-05-05 07:08 47.28929 13.00472 36921 ft 435 kts 140°
2026-05-05 07:08 47.24498 13.06538 36918 ft 435 kts 141°
2026-05-05 07:09 47.20071 13.12582 36942 ft 435 kts 141°
2026-05-05 07:09 47.15663 13.18582 36947 ft 434 kts 141°
2026-05-05 07:10 47.11222 13.24604 36966 ft 434 kts 141°
2026-05-05 07:10 47.06783 13.30632 36950 ft 435 kts 140°
2026-05-05 07:11 47.02340 13.36655 36956 ft 435 kts 141°
2026-05-05 07:11 46.97887 13.42657 36963 ft 435 kts 141°
2026-05-05 07:12 46.93443 13.48643 36954 ft 435 kts 141°
2026-05-05 07:12 46.88989 13.54635 36978 ft 435 kts 141°
2026-05-05 07:13 46.84527 13.60610 36962 ft 435 kts 141°
2026-05-05 07:13 46.80056 13.66585 36964 ft 436 kts 141°
2026-05-05 07:14 46.75587 13.72549 36953 ft 436 kts 141°
2026-05-05 07:14 46.71110 13.78512 36969 ft 436 kts 141°
2026-05-05 07:15 46.66629 13.84454 36977 ft 435 kts 141°
2026-05-05 07:15 46.62143 13.90382 36967 ft 436 kts 141°
2026-05-05 07:16 46.57652 13.96313 36974 ft 437 kts 141°
2026-05-05 07:16 46.53912 14.01250 36975 ft 437 kts 141°
2026-05-05 07:17 46.49399 14.07183 36976 ft 438 kts 141°
2026-05-05 07:17 46.44152 14.14069 36989 ft 438 kts 141°
2026-05-05 07:18 46.39630 14.19988 36994 ft 438 kts 141°
2026-05-05 07:18 46.35865 14.24906 37002 ft 439 kts 141°
2026-05-05 07:19 46.31435 14.30685 37010 ft 439 kts 141°
2026-05-05 07:19 46.26895 14.36593 37008 ft 439 kts 141°
2026-05-05 07:20 46.22345 14.42501 37013 ft 440 kts 141°
2026-05-05 07:20 46.17794 14.48409 37005 ft 440 kts 141°
2026-05-05 07:21 46.13230 14.54291 37007 ft 441 kts 141°
2026-05-05 07:21 46.08651 14.60180 37010 ft 441 kts 141°
2026-05-05 07:22 46.04061 14.66071 37016 ft 442 kts 141°
2026-05-05 07:22 45.99473 14.71944 37017 ft 442 kts 141°
2026-05-05 07:23 45.94882 14.77825 37016 ft 442 kts 141°
2026-05-05 07:23 45.90288 14.83698 37011 ft 442 kts 141°
2026-05-05 07:24 45.85689 14.89563 37009 ft 443 kts 141°
2026-05-05 07:24 45.81077 14.95422 37011 ft 443 kts 141°
2026-05-05 07:25 45.76487 15.01229 37015 ft 443 kts 142°
2026-05-05 07:25 45.71864 15.07073 37008 ft 443 kts 141°
2026-05-05 07:26 45.67240 15.12905 37013 ft 444 kts 141°
2026-05-05 07:26 45.62611 15.18744 37020 ft 444 kts 141°
2026-05-05 07:27 45.57976 15.24571 37027 ft 444 kts 141°
2026-05-05 07:27 45.53336 15.30385 37028 ft 444 kts 142°
2026-05-05 07:28 45.48694 15.36191 37021 ft 444 kts 142°
2026-05-05 07:28 45.44049 15.41980 37022 ft 444 kts 142°
2026-05-05 07:29 45.39393 15.47762 37026 ft 444 kts 142°
2026-05-05 07:29 45.34740 15.53545 37034 ft 444 kts 142°
2026-05-05 07:30 45.30087 15.59317 37038 ft 444 kts 142°
2026-05-05 07:30 45.23098 15.67957 37024 ft 444 kts 142°
2026-05-05 07:31 45.18435 15.73712 37025 ft 444 kts 142°
2026-05-05 07:31 45.13762 15.79450 37028 ft 444 kts 142°
2026-05-05 07:32 45.09089 15.85170 37031 ft 444 kts 142°
2026-05-05 07:32 45.04441 15.90853 37008 ft 445 kts 142°
2026-05-05 07:33 44.99763 15.96580 37019 ft 445 kts 142°
2026-05-05 07:33 44.95083 16.02283 37025 ft 445 kts 142°
2026-05-05 07:34 44.90386 16.07974 37032 ft 445 kts 142°
2026-05-05 07:34 44.85691 16.13667 37034 ft 445 kts 142°
2026-05-05 07:35 44.80993 16.19356 37022 ft 445 kts 142°
2026-05-05 07:35 44.76280 16.25041 37035 ft 446 kts 142°
2026-05-05 07:36 44.71550 16.30742 37055 ft 447 kts 142°
2026-05-05 07:36 44.68103 16.34897 37056 ft 447 kts 142°